Location: Tucson
(32.2217°N, 110.9265°W)
Time: 06:52:05
(UTC-07:00)

Tiros 1 - Pass Details

Date: 25 October 2021
Orbit: 629 x 664 km, 48.4° (Epoch: 26 November)

Event Time Altitude Azimuth Distance (km) Brightness Sun altitude
Rises 17:25:27 0° 298° (WNW) 2,938 11.3 2.1°
Reaches altitude 10° 17:28:04 10° 286° (WNW) 2,020 10.8 1.6°
Maximum altitude 17:31:57 27° 229° (SW) 1,226 9.6 0.8°
Drops below altitude 10° 17:35:48 10° 172° (S) 1,997 9.8 0.0°
Sets 17:38:22 0° 159° (SSE) 2,898 10.4 -0.5°
